Flughafen Wetterinformationen

LTBA 220020Z 31007KT CAVOK 23/21 Q1015 NOSIG

VATSIM Feed

Card image cap

ATC Buchungen

Es wurde keine Position gebucht

Card image cap

Aktive Flugsicherung

Derzeit sind keine Fluglotsen Online

Blog

Read our latest news and get to know us better.